Volver al catálogo

FLOCK 4H 17

ActivoCienciaSSO
NORAD 66720·PAYLOAD·🇺🇸 United States

Lanzado Nov 28, 2025 desde Vandenberg Space Force Base

Loading…

Próximos Pases (próximas 24 horas)

TLE

ActualizadoSource: Space-Track

Época: Sep 14, 2026, 10:54 UTC

1 66720U 25276BG  26257.45431854  .00010112  00000-0  40831-3 0  9993
2 66720  97.4134 330.5277 0003225  34.9485 325.1964 15.24964919 44045

Sigue FLOCK 4H 17 en tiempo real con AllMySat

Download on the App Store